Location: Eggelstetten
(48.6770°N, 10.8508°E)
Time: 20:05:43
(UTC+00:00)

Daily predictions for brighter satellites

Satellite Brightness Start Highest point End
(mag) Time Altitude Azimuth Time Altitude Azimuth Time Altitude Azimuth
Cosmos 1441 Rocket 3.4 16:03:50 10° NNW 16:07:10 64° W 16:10:29 10° S
Cosmos 1908 Rocket 3.9 16:02:52 10° SSW 16:07:17 74° W 16:11:45 10° N
MOS 1 Rocket 4.3 16:03:59 10° ESE 16:07:22 22° ENE 16:10:53 10° NNE
SL-08 R/B 4.4 16:04:08 10° S 16:10:11 75° E 16:16:16 10° NNE
Cosmos 1975 Rocket 3.2 16:06:10 10° N 16:10:25 50° ENE 16:14:40 10° SSE
USA 215 3.3 16:03:57 10° ESE 16:10:30 80° NNE 16:17:04 10° NW
ARIANE 5 R/B 2.7 16:06:17 10° SE 16:11:00 45° ENE 16:15:45 10° N
ATLAS 5 CENTAUR R/B 2.4 16:08:55 10° NW 16:13:13 62° SW 16:18:35 10° SSE
Cosmos 1802 Rocket 4.4 16:11:36 10° SSW 16:18:01 74° W 16:24:28 10° N
Cosmos 2344 4.3 16:11:15 10° NW 16:18:11 38° NNE 16:26:44 10° E
Iridium 4 Rocket 4.0 16:14:40 10° SSW 16:19:36 59° W 16:24:09 10° N
SAR-Lupe-4 3.8 16:16:35 10° SE 16:20:02 48° ENE 16:23:30 10° N
ISS -3.4 16:24:56 10° SW 16:28:13 55° SSE 16:30:57 14° ENE
CZ-2D R/B 2.9 16:26:16 10° SSE 16:29:18 47° ENE 16:32:22 10° N
Cosmos 1833 Rocket 3.8 16:24:56 10° NW 16:30:23 51° WSW 16:35:48 10° S
COSMOS 2406 4.0 16:25:29 10° NNW 16:30:25 29° NE 16:35:19 10° ESE
Cosmos 407 Rocket 3.6 16:25:39 10° S 16:30:39 53° ESE 16:35:40 10° NNE
Cosmos 1484 Rocket 4.1 16:28:12 10° S 16:31:31 40° W 16:34:53 10° NNW
Cosmos 2016 Rocket 4.4 16:25:39 10° SSW 16:31:56 69° WNW 16:38:19 10° N
Cosmos 1812 3.1 16:30:09 10° SSE 16:32:33 24° E 16:34:33 13° NE
IRS-P3 4.2 16:29:19 10° SE 16:34:27 53° ENE 16:39:38 10° N
TIMED 4.5 16:30:36 10° SSW 16:34:51 90° W 16:39:10 10° NNE
Tsikada Rocket 4.3 16:29:11 10° NNW 16:35:36 77° W 16:41:55 10° S
ERS-1 4.5 16:34:33 10° SSE 16:39:39 66° ENE 16:44:43 10° N
Cosmos 2084 Rocket 4.4 16:36:06 10° WSW 16:40:03 40° NW 16:44:03 10° NNE
SMAP 3.1 16:36:57 10° SSE 16:41:37 85° WSW 16:46:19 10° NNW
Cosmos 44 Rocket 3.5 16:39:03 10° SSW 16:43:39 50° ESE 16:47:38 14° NE
Cosmos 540 Rocket 3.4 16:39:50 10° NNW 16:45:00 81° ENE 16:50:06 10° SSE
SJ 16-02 2.4 16:42:18 10° SSE 16:45:49 25° E 16:47:54 17° ENE
SPOT 1/Viking Rocket 3.9 16:41:34 10° SE 16:46:22 40° ENE 16:51:13 10° N
Cosmos 1869 2.9 16:44:01 10° S 16:47:31 70° E 16:51:01 10° NNE
YAOGAN 1 3.4 16:44:40 10° ESE 16:48:16 27° ENE 16:51:51 10° N
SL-16 R/B 3.3 16:46:31 10° N 16:52:35 54° WNW 16:58:37 10° SW
Cosmos 1763 Rocket 3.7 16:48:12 10° NNW 16:53:25 75° WSW 16:58:33 10° SSE
Landsat 7 3.8 16:49:07 10° SSE 16:53:46 88° WSW 16:58:28 10° NNW
Spot 4 Rocket 4.3 16:52:34 10° SE 16:57:20 42° ENE 17:02:07 10° N
Nadezhda 4 Rocket 4.2 16:52:37 10° N 16:58:44 49° ENE 17:04:44 10° SSE
RESURS DK-1 2.8 16:55:13 10° NW 16:59:11 62° WSW 17:03:07 10° SSE
Timation 1 Rocket 4.5 16:53:14 10° NNW 16:59:12 78° WSW 17:05:09 10° SSE
Cosmos 1140 Rocket 4.3 16:54:47 10° SW 16:59:48 50° WNW 17:04:50 10° NNE
Aureole 3 Rocket 2.2 16:57:33 10° S 17:00:32 60° E 17:03:44 10° NNE
CZ-4C R/B 3.8 16:58:14 10° WNW 17:02:17 23° NNW 17:06:52 11° NE
Resurs 1-3 4.1 16:58:38 10° SE 17:02:32 34° ENE 17:06:26 10° N
CZ-4 R/B 4.3 17:01:46 10° SSE 17:05:39 58° ENE 17:09:33 10° N
UNK 4.4 17:01:09 10° N 17:05:42 57° WNW 17:10:12 10° SSW
SJ-6F 4.2 17:01:48 10° SSE 17:05:42 89° WSW 17:09:39 10° NNW
Cosmos 304 Rocket 4.3 17:04:27 10° SSE 17:08:43 34° ESE 17:10:28 26° ENE
Cosmos 1400 Rocket 3.1 17:06:25 10° SSE 17:09:58 39° E 17:11:07 30° NE
SJ-12 4.5 17:06:29 10° S 17:10:12 55° W 17:13:58 10° NNW
Cosmos 371 Rocket 3.9 17:06:02 10° SSE 17:10:21 35° ESE 17:12:04 27° ENE
Cosmos 1536 Rocket 3.5 17:07:57 10° N 17:12:20 59° ENE 17:16:41 10° SSE
Helios 1A Rocket 3.5 17:16:47 28° SE 17:16:47 28° SE 17:19:00 10° SSE
Okean 2 Rocket 3.2 17:13:06 10° SSE 17:17:18 46° E 17:20:03 20° NNE
Cosmos 489 Rocket 4.4 17:13:01 10° NNW 17:19:17 69° ENE 17:25:28 10° SSE
NOAA 6 4.2 17:20:35 10° SE 17:25:30 48° ENE 17:30:26 10° N
Geosat 4.3 17:25:22 33° E 17:26:58 43° NE 17:31:42 10° NNW
SL-12 R/B(2) 4.4 17:18:58 10° SW 17:27:02 82° NW 17:35:47 15° NE
COSMO-SKYMED 1 2.6 17:26:49 40° NE 17:27:50 49° E 17:31:50 10° S
Resurs 01 Rocket 3.3 17:30:11 19° NNE 17:30:11 19° NNE 17:31:49 10° N
Cosmos 1943 Rocket 2.5 17:24:46 10° SW 17:30:20 65° WNW 17:35:17 13° NNE
Timation 2 Rocket 4.5 17:24:55 10° SW 17:31:46 68° WNW 17:38:23 11° NNE
Cosmos 2251 Rocket 3.5 17:28:55 10° SSW 17:34:12 83° WNW 17:38:36 16° NNE
Cosmos 841 Rocket 3.4 17:28:58 10° NNW 17:34:14 69° ENE 17:38:54 13° SSE
Cosmos 2058 3.4 17:30:20 10° NNW 17:34:15 57° W 17:38:09 10° S
SJ-7 4.0 17:32:04 10° SSE 17:35:44 83° ENE 17:39:27 10° NNW
BREEZE-M DEB (TANK) 2.5 17:35:25 10° WSW 17:38:11 89° S 17:39:49 42° E
Cosmos 2082 Rocket 2.6 17:33:51 10° NNW 17:39:24 63° WSW 17:44:56 10° SSE
ATLAS 2AS CENTAUR R/B 3.0 17:33:56 10° NW 17:40:24 44° NE 17:42:14 36° ENE
Cosmos 1346 Rocket 4.4 17:37:18 10° N 17:38:39 20° N 17:38:39 20° N
IRAS Rocket 4.2 17:37:12 10° SSE 17:42:45 86° WSW 17:48:19 10° NNW
Cosmos 2278 Rocket 2.8 17:38:20 10° SW 17:43:53 56° WNW 17:48:33 15° NNE
MOS 1 Rocket 4.2 17:40:58 10° S 17:45:07 45° W 17:49:29 10° NNW
Cosmos 1464 Rocket 4.1 17:43:39 10° SSW 17:49:58 78° W 17:56:13 10° N
Cosmos 1634 Rocket 4.3 17:44:37 10° SSE 17:57:50 - NNE 17:50:01 43° E
CZ-2D R/B 4.1 17:46:45 10° S 17:50:49 55° W 17:54:59 10° NNW
Meteor 2-1 Rocket 4.2 17:45:47 10° S 17:51:38 66° E 17:57:32 10° NNE
Cosmos 2369 Rocket 3.8 17:48:27 10° SSE 17:50:08 18° SSE 17:50:08 18° SSE
USA 215 4.5 17:47:51 10° SSE 17:53:52 39° SW 17:59:57 10° WNW
PSLV R/B 3.7 17:52:35 10° S 17:56:36 67° WSW 18:00:37 10° NNW
Cosmos 1862 4.4 17:53:12 10° NNW 17:56:38 40° W 18:00:02 10° SSW
Cosmos 2151 Rocket 4.4 17:56:14 10° SSW 18:00:37 52° WNW 18:05:02 10° N
Cosmos 1190 Rocket 4.5 17:56:51 10° SW 18:02:04 59° WNW 18:05:26 22° N
Cosmos 2034 Rocket 3.9 17:57:39 10° S 18:03:52 89° W 18:10:12 10° N
ISS -2.1 18:01:44 10° W 18:03:52 34° WNW 18:03:52 34° WNW
Cosmos 676 Rocket 3.9 17:59:48 10° SSW 18:05:06 86° WNW 18:06:42 47° NNE
Okean 1 Rocket 3.3 18:02:52 10° SSW 18:07:14 67° W 18:08:25 46° NNW
Cosmos 1656 Rocket 3.5 18:02:17 10° SSW 18:07:47 70° ESE 18:07:59 70° E
USA 281 3.2 18:11:28 55° ENE 18:11:55 56° NE 18:18:20 10° NNW
Sich 1 Rocket 4.1 18:08:32 10° SSW 18:13:01 59° WNW 18:14:56 32° NNW
COSMOS 2406 3.6 18:09:29 10° NW 18:15:05 61° WSW 18:19:01 20° S
Cosmos 1932 4.4 18:08:56 10° SSW 18:15:18 79° SE 18:16:22 63° ENE
Cosmos 1092 Rocket 3.9 18:10:31 10° N 18:16:49 89° E 18:23:00 10° S
BlueWalker 3 4.4 18:14:58 10° SSW 18:15:40 15° SSW 18:15:40 15° SSW
Cosmos 2026 Rocket 4.0 18:15:42 10° NNW 18:21:47 76° W 18:27:55 10° S
SJ 16-02 2.6 18:19:43 10° SW 18:23:45 38° WNW 18:24:29 35° NW
YAOGAN 1 4.1 18:20:06 10° SSW 18:24:00 35° W 18:27:55 10° NNW
Cosmos 2344 3.9 18:25:29 10° NW 18:33:28 82° SW 18:38:34 35° SSE
Meteor 2-3 Rocket 4.5 18:32:11 10° NNW 18:37:40 50° W 18:43:03 10° SSW
CZ-4C R/B 4.1 18:48:10 10° NW 18:51:49 21° N 18:51:49 21° N
Resurs 01 Rocket 4.3 19:07:36 14° NW 19:07:36 14° NW 19:08:20 10° NNW
Cosmos 1943 Rocket 4.5 19:11:40 10° WNW 19:15:11 17° NW 19:16:48 15° NNW
ATLAS 2AS CENTAUR R/B 3.6 19:24:56 10° NW 19:29:41 44° WNW 19:29:41 44° WNW
